GFSFLT2_500_rhum_096.txt.gz
RH
13 11 15 21 22 24 20 20 20 20 19 16 16 14 16 17 16 15 16 18 19 21 24 25 25 24 23
13 15 21 23 25 22 22 20 19 19 17 18 17 19 19 18 18 18 18 21 24 26 28 29 26 25 24
25 22 25 26 24 24 22 20 19 18 18 20 22 22 21 20 20 20 22 24 24 26 30 30 27 24 24
25 28 29 26 26 25 23 19 20 21 24 26 25 24 22 22 21 19 20 24 23 25 32 36 31 23 20
31 33 30 28 28 25 21 21 25 28 28 28 25 26 26 25 20 16 17 19 22 30 41 29 19 20 30
36 35 30 31 27 24 25 29 32 29 28 32 29 28 28 21 10 9 10 13 21 35 49 28 14 20 39
39 35 36 32 30 28 32 35 33 30 31 32 30 32 30 11 7 7 9 13 26 40 52 62 63 61 59
40 40 38 34 31 34 38 39 33 32 34 34 34 33 17 8 8 8 9 15 29 43 49 55 57 54 51
42 42 38 34 37 41 42 37 36 38 38 37 36 25 9 9 9 10 11 14 27 42 43 48 51 48 34
42 40 38 40 44 47 42 41 41 44 43 41 37 16 9 10 10 11 13 15 20 33 42 44 42 38 46
41 41 44 49 49 47 46 44 43 45 47 45 40 14 12 13 12 13 15 16 20 25 30 41 53 57 45
50 48 50 49 52 51 48 48 46 46 48 50 48 26 15 15 15 18 17 18 21 22 25 33 51 58 53
58 56 56 58 58 56 54 51 50 51 56 56 49 36 17 18 18 23 24 32 31 28 36 43 49 52 56
67 64 64 62 61 59 56 57 58 57 57 51 34 25 21 22 21 26 27 32 34 31 33 58 70 63 54
71 69 66 66 66 64 62 62 64 59 48 28 20 23 27 27 25 26 28 27 23 24 31 45 93 92 78
74 76 73 70 68 69 70 70 68 60 47 28 23 26 26 25 25 24 22 21 24 27 31 39 97 100 93
82 82 81 77 76 77 78 74 74 54 26 22 24 27 31 26 20 25 21 23 36 46 44 40 30 98 100

GFSFLT2_500_rhum_099.txt.gz
RH
16 20 19 18 15 16 22 23 25 22 21 19 18 16 16 17 21 21 19 18 18 16 12 11 14 15 16
18 20 19 17 19 26 24 27 24 23 21 18 17 18 19 23 24 23 20 20 18 12 10 10 15 18 20
22 39 23 26 40 30 30 28 25 24 20 19 20 23 26 26 25 24 23 20 15 8 7 7 9 14 20
55 47 25 44 35 35 34 28 28 24 21 24 27 28 28 26 25 26 25 22 10 6 6 6 7 12 18
50 28 51 38 38 39 33 31 29 23 25 30 31 29 29 29 30 28 25 14 8 6 7 7 8 13 20
30 52 43 43 43 38 36 33 28 27 32 34 32 31 32 33 33 31 19 8 7 8 8 8 10 14 25
55 48 49 46 41 41 38 33 29 35 39 36 33 35 38 38 36 30 12 9 9 9 10 11 11 14 26
51 54 50 44 43 41 37 33 34 40 39 38 40 41 42 42 38 28 11 11 11 10 11 12 14 15 23
59 53 47 45 42 39 36 37 42 41 43 43 43 43 44 45 44 29 15 13 13 13 12 13 15 19 22
55 52 47 43 41 39 42 44 44 47 45 46 43 43 45 48 42 25 16 14 16 19 17 16 16 21 25
55 49 48 46 47 47 46 50 50 52 50 46 44 45 46 47 32 20 18 19 21 23 23 22 23 24 26
54 56 74 77 58 53 56 55 55 55 54 52 52 52 48 39 27 22 22 25 26 26 24 25 25 24 23
61 76 80 69 64 59 59 59 60 59 58 58 59 59 39 21 22 25 23 26 27 30 29 23 22 24 25
75 81 80 67 65 64 64 64 63 62 63 61 63 54 21 19 21 26 38 42 37 24 19 21 23 26 29
84 78 71 71 71 71 72 74 72 68 67 69 67 30 17 16 24 36 31 18 17 18 26 58 66 48 32
75 77 80 82 82 81 80 80 77 73 74 75 59 17 16 19 29 27 17 15 16 33 62 64 58 23 14
89 97 99 98 92 86 86 86 85 84 79 74 36 17 16 19 31 27 17 15 20 66 72 72 54 19 18

GFSFLT2_500_rhum_102.txt.gz
RH
71 71 71 50 18 21 22 23 19 28 29 27 25 23 20 17 17 19 23 23 19 17 16 15 14 11 8
70 72 68 50 25 36 44 21 42 36 32 30 26 24 19 19 23 24 22 20 20 20 21 18 15 9 7
56 55 32 65 30 85 29 51 45 37 34 31 27 23 22 27 26 26 25 24 24 24 24 17 10 8 7
28 32 46 43 78 57 52 50 40 39 35 31 27 24 29 31 28 27 27 28 29 30 24 14 10 8 8
34 36 78 90 31 59 58 45 44 38 36 33 28 32 36 33 31 33 34 35 35 29 20 11 10 9 9
81 90 93 36 57 61 50 47 42 39 37 33 32 38 37 36 38 38 38 36 33 28 20 12 11 10 10
98 88 44 82 63 57 51 44 44 39 36 34 38 40 41 40 39 36 37 36 32 26 16 13 12 13 14
90 42 78 62 62 56 48 44 41 38 37 41 42 44 44 43 38 37 36 35 31 21 14 16 17 18 20
45 83 73 69 60 51 45 42 39 39 44 44 48 48 48 44 41 40 41 38 30 19 17 19 22 25 28
95 82 75 63 55 48 46 44 46 45 47 52 53 52 51 48 47 48 44 30 16 14 16 19 27 35 36
86 83 66 59 52 52 65 70 56 54 55 56 54 53 54 54 53 52 32 12 14 15 20 20 22 23 22
93 70 62 58 58 76 76 66 61 59 59 58 59 58 56 57 58 45 13 13 14 17 23 17 15 15 17
76 67 64 62 74 79 78 64 65 66 67 69 68 63 65 70 67 28 14 15 16 23 26 18 15 17 42
70 67 72 77 80 82 69 70 70 72 76 75 75 74 75 73 59 16 15 16 17 22 26 15 16 34 63
78 86 88 88 85 73 76 77 82 82 77 77 81 87 84 75 38 16 17 18 18 24 20 14 19 50 69
93 90 87 80 77 83 90 91 93 89 85 83 90 92 87 66 21 18 19 20 19 20 15 13 24 60 70
100 96 94 89 91 95 92 91 94 98 97 97 97 96 87 59 20 19 21 23 20 18 13 13 20 65 75

GFSFLT2_500_rhum_105.txt.gz
RH
76 70 69 70 72 70 58 33 36 40 52 30 65 63 34 29 26 20 19 23 22 22 21 20 20 21 20
75 73 77 78 69 41 29 44 40 90 48 82 49 39 33 29 25 21 26 27 24 24 24 25 25 25 24
79 76 74 70 40 29 42 45 87 74 58 73 44 38 34 29 25 29 31 27 27 30 31 30 31 28 22
76 80 68 58 47 40 57 86 49 67 79 49 43 38 34 29 31 34 31 32 35 34 34 30 27 25 22
82 85 92 71 65 60 93 74 56 74 54 47 42 38 33 32 37 35 37 38 35 32 30 29 27 26 22
69 88 97 96 95 100 71 82 95 64 53 47 42 37 34 37 40 41 40 38 34 33 32 31 30 27 21
67 84 95 77 84 97 74 96 79 77 51 46 40 35 38 43 44 43 42 38 36 34 35 34 24 14 12
66 69 72 98 90 73 99 86 91 58 48 42 39 41 45 47 47 48 47 43 40 40 38 15 11 10 10
54 68 94 94 74 98 99 95 62 51 45 42 46 46 50 49 50 52 50 47 45 44 17 12 12 13 16
56 95 76 85 100 100 97 66 54 50 55 58 53 55 54 55 54 55 52 51 52 42 13 13 12 15 21
65 96 90 100 98 98 71 58 58 77 70 61 60 60 60 61 63 62 59 61 58 27 14 14 16 16 21
88 99 100 100 99 78 64 61 78 80 73 65 65 66 67 70 69 68 69 66 50 15 16 18 18 15 16
100 100 100 100 85 72 64 69 85 86 71 72 72 71 75 76 76 75 77 68 32 17 18 21 18 14 13
100 100 100 94 77 72 74 80 88 80 76 74 79 83 82 84 84 85 82 72 24 18 21 24 20 15 13
100 100 100 86 77 86 91 92 85 81 83 84 92 95 95 92 92 91 82 75 24 20 23 27 24 16 13
100 100 100 95 95 93 92 86 84 87 87 89 97 100 100 89 92 90 82 78 23 21 24 28 28 21 14
100 100 100 100 100 99 98 96 96 94 92 96 95 98 100 96 90 86 87 81 24 24 22 26 33 27 16

GFSFLT2_500_rhum_108.txt.gz
RH
69 62 81 80 75 74 81 85 89 61 30 52 60 85 55 87 55 36 30 25 21 24 25 23 23 25 26
72 62 62 64 72 74 73 67 48 35 48 62 86 62 84 71 40 34 30 24 26 30 27 26 29 31 31
48 48 51 57 86 81 74 71 56 41 55 80 52 73 86 45 39 35 28 27 34 32 30 34 32 28 26
31 43 46 52 94 74 72 80 58 66 78 93 65 86 53 44 40 34 30 34 36 35 37 32 28 28 28
13 32 54 57 75 66 78 100 91 98 97 58 91 62 54 47 39 33 34 38 38 39 37 34 33 31 30
26 17 40 58 55 72 96 98 85 86 70 99 85 72 59 44 37 34 40 40 41 42 41 38 37 36 34
27 30 41 62 54 79 95 90 83 94 98 98 96 72 49 41 37 42 43 45 48 48 47 45 42 40 24
34 41 63 56 74 70 72 94 95 91 100 98 84 55 44 40 43 45 48 51 51 50 49 48 47 41 19
44 63 59 84 68 61 94 98 98 100 100 90 61 48 45 48 48 52 56 53 54 53 53 53 50 31 13
62 59 88 85 67 96 90 94 100 100 91 68 54 56 59 54 56 60 60 62 62 62 64 60 46 14 12
51 78 83 79 84 99 99 100 100 94 78 60 74 73 64 61 60 63 64 68 68 69 68 64 40 15 13
63 82 99 100 96 100 100 99 96 91 68 82 85 75 67 66 67 64 71 72 73 70 74 68 32 15 15
93 100 100 100 100 100 100 97 96 82 72 88 92 79 73 72 73 78 80 81 77 78 74 69 42 17 18
98 99 99 100 100 100 100 95 97 78 78 87 93 82 80 80 88 91 91 81 88 86 80 77 61 20 19
100 100 100 100 100 100 98 95 94 88 92 94 94 90 92 97 96 89 84 85 89 87 85 90 77 25 21
100 100 100 100 100 100 98 98 100 100 100 96 93 98 100 100 100 89 86 91 97 96 95 100 87 32 22
100 100 100 100 100 100 99 100 100 100 100 99 100 100 100 100 100 96 95 98 99 96 97 98 93 31 26

GFSFLT2_500_rhum_111.txt.gz
RH
98 92 94 87 88 93 86 84 86 93 77 65 62 44 45 52 79 80 90 65 36 30 24 24 28 26 24
88 56 22 51 91 69 70 61 65 83 77 67 59 44 48 90 88 96 87 43 35 28 26 30 30 27 33
18 13 14 21 35 50 52 53 67 76 62 74 64 59 79 88 91 93 61 49 34 30 32 35 31 35 31
20 20 24 24 21 20 34 56 59 63 61 78 82 92 98 97 99 66 68 42 33 33 37 36 38 35 34
16 17 19 23 28 30 25 28 62 60 62 80 85 85 72 94 85 78 54 40 35 36 39 40 40 40 38
23 30 37 35 35 30 31 28 57 57 67 93 81 88 80 98 95 75 47 39 36 41 42 43 44 45 42
31 35 39 48 43 33 37 56 64 71 90 84 81 91 100 96 91 55 45 39 43 45 45 46 47 44 41
30 42 56 51 41 41 46 62 61 95 88 74 99 100 100 96 65 51 45 45 48 49 49 50 50 48 49
49 59 56 48 44 54 66 58 91 87 79 100 100 100 99 76 58 49 48 49 53 54 54 59 57 58 58
66 66 66 52 64 62 59 98 96 78 100 100 100 100 86 64 54 55 56 56 57 58 64 63 62 60 58
68 62 69 74 64 58 95 100 100 100 100 100 100 95 70 62 68 66 63 62 63 67 71 68 65 65 68
55 64 83 61 58 74 89 100 100 97 100 100 99 86 68 81 76 71 67 69 74 77 78 77 70 75 75
67 64 59 71 88 97 100 100 100 100 100 100 100 76 88 90 84 73 73 78 87 89 88 82 80 81 78
100 91 86 92 99 96 97 100 100 100 100 99 95 77 88 95 92 76 79 87 96 95 88 84 86 86 83
95 96 95 98 97 100 100 100 100 100 100 99 95 82 88 92 91 82 89 95 100 100 95 92 90 90 89
96 100 100 100 100 100 100 100 100 100 100 99 98 96 98 99 92 83 90 98 100 100 97 100 96 80 88
95 100 100 100 100 100 100 100 100 100 100 99 99 100 100 92 91 90 88 91 97 98 99 100 100 86 85

GFSFLT2_500_rhum_114.txt.gz
RH
97 95 96 97 95 97 94 96 77 96 83 67 56 58 59 50 56 46 55 81 92 97 49 39 28 24 28
95 96 96 62 58 34 20 17 19 27 41 53 50 57 53 55 58 51 75 80 91 79 70 34 28 30 32
36 23 16 15 17 17 20 21 19 22 24 30 48 65 58 66 84 82 88 96 85 77 58 32 31 36 33
15 16 16 19 20 19 21 28 30 32 35 31 50 77 64 75 91 83 85 100 90 93 41 33 35 37 38
17 18 16 19 16 19 24 31 43 43 37 33 52 78 82 91 100 85 86 100 96 69 38 36 39 40 41
13 12 14 20 26 29 35 35 46 49 41 37 43 71 92 100 100 100 87 100 97 51 40 38 43 43 45
23 23 25 36 40 37 35 36 55 52 41 41 55 70 88 100 100 100 100 100 81 47 42 45 47 48 45
22 34 40 39 30 39 52 54 53 45 47 53 64 72 95 99 100 100 100 98 63 47 46 50 52 51 48
40 45 42 36 40 51 61 65 52 55 62 67 67 94 98 98 100 100 100 86 56 49 52 55 56 54 55
48 47 47 48 60 69 66 71 74 70 63 67 83 96 96 100 99 100 97 71 55 55 56 60 60 58 62
50 49 47 57 54 60 70 77 71 69 82 87 100 100 100 100 100 100 87 66 61 62 65 64 64 64 68
60 59 66 67 64 62 64 65 61 77 92 100 100 100 100 100 99 98 85 75 72 72 70 67 69 72 78
61 65 67 90 97 88 78 82 84 93 100 100 100 100 100 100 96 96 94 84 82 79 75 76 78 84 89
80 79 84 87 92 99 96 100 100 100 100 100 100 100 100 100 97 97 99 95 90 85 83 83 84 87 86
96 93 95 92 98 97 100 100 100 100 100 100 100 100 100 99 96 98 100 100 100 94 95 96 87 85 88
99 98 100 100 99 95 96 98 100 100 100 100 100 100 100 100 97 99 99 98 100 100 98 95 88 84 85
99 100 100 100 100 96 96 100 100 100 100 100 100 100 100 99 100 100 100 100 100 100 100 100 99 81 88

GFSFLT2_500_rhum_117.txt.gz
RH
68 79 100 99 97 99 95 86 62 66 36 26 24 22 33 38 50 55 48 50 47 61 82 85 87 43 33
67 77 86 75 65 51 39 26 20 21 20 21 21 26 29 27 37 55 55 61 73 84 84 90 72 64 30
60 56 33 19 15 15 16 18 18 18 19 18 23 34 35 32 37 70 68 80 96 90 100 84 88 57 30
11 11 11 11 12 14 15 14 13 13 13 18 24 35 43 37 42 82 97 100 99 99 100 72 90 40 33
11 10 11 13 14 16 16 16 22 24 30 36 35 48 51 41 57 98 100 99 100 98 100 100 77 36 37
7 12 13 10 12 15 17 20 29 40 41 38 41 54 52 45 61 88 98 94 100 98 100 100 65 38 42
15 13 13 15 18 26 33 38 43 40 41 51 55 58 55 54 67 85 93 100 100 100 100 99 60 42 47
17 20 25 31 35 41 50 47 45 49 62 67 64 57 57 69 72 79 96 100 100 100 100 95 60 48 51
18 21 24 29 38 52 54 55 60 68 71 69 73 70 68 70 75 84 100 100 100 100 98 93 57 54 55
16 22 34 40 49 54 54 52 50 55 61 70 81 68 68 78 95 95 100 99 100 100 98 94 58 59 59
22 25 39 46 55 61 57 62 63 59 73 82 76 81 98 100 98 100 100 100 100 100 98 81 63 63 63
26 27 40 50 63 64 67 68 87 88 63 62 70 85 99 100 100 100 100 100 100 98 97 80 69 67 69
33 32 37 52 74 73 68 81 83 88 88 92 99 99 96 100 100 100 100 100 100 100 98 86 77 76 77
42 42 47 65 85 90 89 96 92 98 100 96 100 100 100 100 100 100 100 100 98 100 98 91 88 86 88
52 56 59 71 92 95 98 100 100 98 100 100 100 100 100 100 100 100 100 99 99 100 99 100 97 93 91
65 67 68 67 85 94 100 100 100 100 100 100 100 100 99 96 100 100 100 100 100 99 100 99 96 96 96
58 62 68 70 84 90 100 100 100 100 100 100 98 99 100 100 100 100 100 100 100 99 97 93 92 95 96

GFSFLT2_500_rhum_120.txt.gz
RH
15 19 36 47 56 52 55 57 53 34 21 15 16 18 17 19 17 25 27 28 44 55 54 57 72 83 90
14 27 42 27 18 13 12 11 11 11 12 14 15 14 12 13 15 24 26 33 40 66 61 83 91 86 96
21 18 11 10 9 8 7 7 7 9 13 14 16 16 18 22 28 31 38 40 62 95 82 87 94 94 94
10 11 10 10 8 6 6 9 11 10 12 17 22 24 30 37 40 37 45 45 52 98 100 96 96 99 70
12 13 12 7 5 6 11 10 9 11 20 25 30 40 46 46 44 43 56 50 49 86 100 97 94 99 87
14 13 6 6 8 11 10 8 13 18 25 40 49 49 46 48 51 58 62 54 65 99 100 97 100 100 100
14 7 8 10 11 11 10 9 15 19 31 48 50 50 57 61 63 60 61 61 71 94 100 100 100 97 100
8 9 13 12 11 11 12 16 24 32 46 50 53 63 72 75 76 78 67 72 80 97 100 100 98 99 100
9 10 12 12 14 15 16 25 33 42 49 46 51 53 61 67 80 79 73 85 96 100 100 100 100 100 99
10 11 13 15 17 17 19 31 39 50 57 53 58 57 67 76 82 76 81 96 99 100 100 100 100 100 99
12 15 18 18 21 24 28 30 44 58 62 65 68 71 66 74 87 95 100 100 100 99 100 100 100 100 100
15 21 18 16 30 36 34 35 54 68 70 72 79 76 78 67 77 96 100 100 100 100 100 100 100 100 99
22 19 18 27 37 40 43 49 68 82 89 95 88 88 95 97 100 100 100 100 100 100 100 100 100 99 98
26 29 31 33 42 46 58 61 70 88 89 100 100 97 100 100 100 96 100 100 100 99 100 100 100 99 98
34 35 36 41 47 60 65 67 71 87 98 99 98 100 97 100 100 100 100 100 100 100 100 100 100 99 100
35 34 36 33 29 39 54 63 69 85 95 100 100 100 100 100 100 100 100 100 100 100 100 100 100 100 99
23 31 31 29 28 24 24 26 47 75 96 98 97 100 100 100 100 100 100 99 100 98 100 100 100 100 99

GFSFLT2_500_rhum_123.txt.gz
RH
18 18 15 15 14 15 16 13 10 7 6 6 5 6 8 13 17 16 16 15 18 24 33 34 47 80 64
20 19 18 15 15 13 10 10 8 8 6 4 6 9 10 11 14 16 21 24 30 33 42 41 71 96 94
20 20 17 12 10 11 10 9 9 6 4 7 8 8 13 19 22 27 26 37 41 44 50 47 95 100 94
22 17 10 9 12 12 13 9 5 5 6 8 7 8 14 22 34 40 47 48 45 44 56 52 93 100 100
17 13 10 12 13 14 12 6 6 6 8 9 8 12 18 29 46 49 49 48 44 46 62 60 88 100 100
15 13 13 14 16 17 8 6 7 7 10 11 13 22 32 49 52 51 51 57 59 65 71 68 93 100 100
17 16 16 16 18 13 6 8 10 12 13 11 19 26 35 51 57 59 70 75 75 72 66 74 93 100 100
21 20 18 18 18 10 7 7 11 15 13 13 24 37 48 49 48 49 62 70 75 88 86 87 98 100 100
24 22 21 21 21 12 8 10 14 16 20 23 26 41 57 61 59 50 63 70 77 80 77 91 100 100 100
25 24 24 24 19 10 10 15 14 16 21 24 31 49 62 70 66 59 68 75 80 78 89 98 100 98 100
28 29 27 21 12 12 15 16 18 22 29 30 42 65 71 76 82 79 71 65 81 99 96 100 100 100 100
33 31 25 16 16 18 17 21 24 26 31 37 56 80 83 90 86 84 83 74 78 94 100 90 96 100 100
34 28 21 20 24 26 24 26 30 32 39 50 60 86 95 92 94 93 99 98 100 100 94 86 86 93 97
37 30 24 25 32 29 29 35 39 40 49 58 65 73 98 100 96 95 100 100 100 100 97 99 96 97 100
40 41 36 35 35 34 36 36 32 30 31 32 54 67 87 100 100 100 100 98 98 100 98 100 100 100 100
48 48 42 41 38 30 36 34 32 32 30 24 24 49 80 96 100 100 100 100 100 100 100 100 100 100 100
55 51 46 36 23 29 38 41 40 40 37 35 29 24 68 99 100 100 100 100 100 100 100 100 100 99 100

GFSFLT2_500_rhum_126.txt.gz
RH
33 23 15 11 10 13 14 13 14 15 9 7 8 8 6 4 6 7 9 14 20 25 26 30 34 34 47
16 13 13 12 14 16 17 17 16 9 9 10 10 5 4 5 8 7 7 13 22 29 39 45 45 47 47
15 13 13 16 21 22 20 16 10 11 12 12 9 5 6 8 10 10 11 20 31 48 51 54 53 50 58
14 17 17 21 26 24 19 12 11 13 14 14 7 6 6 10 12 13 17 31 45 47 45 48 58 62 66
15 21 22 28 24 20 16 12 13 14 16 11 7 6 7 11 11 14 24 46 52 53 61 64 68 77 74
18 26 28 28 21 16 15 14 15 16 17 11 6 6 9 11 13 20 33 44 42 41 61 74 78 74 74
23 28 30 28 16 15 18 18 18 19 21 11 7 8 11 11 17 24 46 47 44 51 64 73 81 98 87
28 30 27 19 16 22 22 21 21 22 20 9 6 8 11 16 20 23 50 57 57 54 66 77 86 87 96
29 29 26 16 20 25 24 24 24 23 14 8 8 10 10 18 24 33 57 67 64 60 73 85 80 81 84
38 31 21 22 28 28 27 28 26 17 12 11 12 10 12 23 30 48 69 73 77 81 70 74 76 85 92
38 28 22 28 32 31 31 30 22 17 14 14 15 14 20 32 36 54 70 85 97 93 77 76 91 89 100
43 25 36 37 34 36 33 27 19 16 16 15 14 21 32 38 49 55 79 85 99 99 94 78 89 100 91
33 42 43 41 41 41 38 28 22 22 25 24 30 32 43 42 54 57 72 90 96 96 98 100 100 100 100
54 54 55 51 67 69 39 37 32 35 33 33 33 31 31 34 44 55 66 91 92 96 97 100 100 100 100
70 70 66 82 89 49 41 44 43 37 30 35 36 34 34 32 26 38 60 81 91 93 100 100 100 100 100
100 96 91 85 60 51 46 50 41 29 28 36 40 39 39 36 34 31 39 73 89 98 100 100 100 100 100
100 100 96 72 65 63 54 46 29 26 30 41 38 38 42 42 38 35 32 47 91 100 100 100 100 100 100

GFSFLT2_500_rhum_129.txt.gz
RH
43 42 44 34 26 19 9 7 8 9 10 16 20 16 11 9 11 9 6 5 8 11 12 16 24 29 34
53 50 45 19 13 10 10 12 10 12 16 22 20 13 11 12 12 9 6 6 10 10 11 24 41 41 45
73 63 44 14 11 12 11 10 11 15 22 24 18 12 13 15 14 10 6 8 10 11 15 28 45 43 38
69 39 19 15 13 13 12 12 15 20 26 21 16 13 15 16 18 12 6 8 11 13 18 39 43 40 56
43 27 18 16 15 14 15 19 21 24 25 18 16 16 17 19 20 9 8 11 13 18 24 44 42 54 62
33 19 18 18 15 14 16 20 28 27 21 18 18 20 20 21 17 8 7 10 11 13 21 46 46 55 71
23 19 15 14 14 17 18 25 29 22 19 22 22 22 22 23 11 8 10 10 15 21 49 65 59 59 71
21 17 14 15 18 24 30 30 30 21 20 24 24 24 25 23 10 10 10 12 18 25 54 71 70 65 79
20 18 18 18 28 33 37 36 32 23 22 25 27 28 24 17 12 12 8 10 21 36 66 76 77 76 72
28 33 34 32 36 42 42 38 25 23 27 30 31 30 21 18 14 11 13 19 27 42 73 86 98 96 72
49 53 54 51 50 54 48 40 27 35 34 34 33 25 20 17 15 14 17 26 32 48 78 88 91 94 84
66 66 66 66 64 59 50 41 36 40 39 38 31 28 22 22 17 19 28 38 43 50 74 90 93 97 95
78 80 80 72 63 55 49 44 47 48 47 50 61 32 26 30 32 25 29 31 37 52 73 92 94 94 98
88 88 76 70 75 84 78 66 61 65 78 82 47 39 36 32 36 33 30 30 30 33 54 87 91 98 100
87 82 83 94 93 86 84 80 85 88 87 64 50 46 33 28 37 39 38 37 34 32 39 60 90 95 98
94 94 98 97 91 99 100 99 99 95 90 76 64 43 31 29 37 39 39 43 42 38 34 39 67 91 100
99 95 92 94 94 94 93 96 94 96 96 90 65 34 29 28 36 36 44 46 41 39 41 38 49 86 100

GFSFLT2_500_rhum_132.txt.gz
RH
90 78 94 85 59 42 42 41 29 26 17 8 12 12 9 12 20 22 16 13 15 16 14 7 9 10 8
89 93 98 78 60 53 58 46 21 15 12 11 13 12 12 18 23 19 15 15 16 18 15 8 10 11 11
96 82 97 83 69 67 66 58 23 14 14 13 13 13 16 21 23 18 16 17 18 20 14 8 10 11 13
88 75 80 93 90 77 83 60 20 20 16 16 16 18 22 28 25 18 18 20 21 21 13 8 10 10 22
95 68 83 81 88 94 63 37 22 22 20 16 16 22 27 26 21 20 21 22 23 18 11 10 10 13 36
100 84 85 97 95 63 43 36 26 21 16 15 20 30 30 25 21 21 22 24 24 15 12 10 9 15 38
92 70 64 61 61 53 42 33 22 16 14 17 27 34 30 25 22 24 25 27 19 14 13 9 14 25 46
72 62 70 72 61 45 38 31 22 21 26 33 35 38 30 24 26 28 29 25 19 14 11 8 14 26 57
74 77 72 67 49 43 37 32 28 37 40 41 44 42 30 28 30 31 31 23 19 14 12 12 22 34 60
100 97 68 51 51 49 53 52 57 54 51 49 50 47 37 34 34 34 31 27 19 15 12 16 33 42 64
68 57 57 57 56 63 69 66 62 61 63 63 59 53 42 38 42 38 41 47 21 16 19 23 33 43 64
63 69 69 69 74 75 71 69 69 71 69 63 59 56 52 53 50 59 70 33 24 20 22 26 29 39 56
79 83 88 91 85 80 79 83 89 83 81 76 74 72 70 68 73 81 50 34 32 31 30 29 30 31 40
100 100 99 94 95 99 97 98 95 93 82 77 78 78 80 83 86 67 49 36 31 36 36 35 36 32 31
99 98 98 94 94 99 100 97 96 92 86 86 88 94 99 100 83 67 63 39 30 34 39 40 41 37 33
100 100 100 100 96 98 100 100 100 98 97 100 100 94 100 100 92 85 55 36 30 32 36 40 39 36 33
100 100 100 98 96 97 100 100 100 100 100 100 93 100 100 100 99 90 50 32 28 29 41 37 29 21 20

GFSFLT2_500_rhum_135.txt.gz
RH
87 86 95 97 91 82 89 99 94 59 51 50 51 34 25 20 17 17 17 18 26 26 20 18 19 20 16
93 92 88 80 79 85 85 90 97 81 67 64 64 57 38 23 23 22 20 23 27 23 20 20 20 22 16
93 85 99 82 74 75 73 78 95 90 88 92 87 71 42 29 26 21 23 23 27 24 21 20 22 24 18
92 95 99 96 78 78 78 68 82 92 98 100 92 61 35 28 25 22 22 24 27 25 23 21 25 26 19
95 95 97 96 85 90 94 88 97 100 98 98 83 50 35 29 26 27 31 30 30 26 23 24 28 27 18
100 96 97 97 91 97 99 97 99 100 100 94 66 45 39 35 34 36 31 31 31 28 25 27 30 26 16
91 88 96 98 99 100 99 98 99 100 98 75 52 43 44 44 44 40 34 32 34 32 29 30 34 26 15
97 94 97 99 98 98 98 97 98 98 87 64 52 58 58 54 50 45 40 40 38 36 33 36 38 26 13
98 99 99 98 98 98 97 97 97 99 84 71 72 82 73 59 56 52 48 46 41 42 38 39 52 26 14
98 97 100 99 98 98 95 95 97 98 97 96 96 96 88 70 62 62 60 52 51 50 42 60 40 20 17
98 98 99 99 99 97 97 97 98 98 98 98 95 86 79 74 77 70 60 56 56 56 68 61 32 27 23
98 97 97 96 97 97 97 99 98 99 100 100 99 94 94 91 86 69 64 65 66 73 76 40 34 34 27
98 99 100 96 99 98 99 100 100 100 100 97 98 99 98 97 86 72 71 80 81 86 62 40 32 35 34
100 100 100 98 98 100 100 100 100 100 99 98 100 100 98 96 88 80 89 94 100 85 56 44 32 36 38
100 100 100 100 100 99 98 99 96 92 96 92 97 95 100 100 98 99 100 87 100 78 68 43 36 35 36
99 95 96 100 97 98 92 82 85 88 84 83 92 100 100 100 100 100 98 95 100 98 69 49 42 33 30
100 99 99 97 96 92 86 87 82 82 80 86 94 100 100 100 99 98 100 100 100 100 94 66 46 31 44